QPF
0.00 0.00 0.00 0.00 0.00 0.00 0.00 0.00 0.00 0.00 0.00 0.00 0.00 0.00 0.00 0.00 0.00 0.00 0.00 0.00 0.00 0.00 0.00 0.00 0.00 0.00 0.00 0.00 0.00 0.00 0.00 0.00 0.00 0.00 0.00 0.00 0.00 0.00 0.00 0.00 0.00 0.00 0.01 0.01
0.00 0.00 0.00 0.00 0.00 0.00 0.00 0.00 0.00 0.00 0.00 0.00 0.00 0.00 0.00 0.00 0.00 0.00 0.00 0.00 0.00 0.00 0.00 0.00 0.00 0.00 0.00 0.00 0.00 0.00 0.00 0.00 0.00 0.00 0.00 0.00 0.00 0.00 0.00 0.00 0.00 0.00 0.00 0.00
0.00 0.00 0.00 0.00 0.00 0.00 0.00 0.00 0.00 0.00 0.00 0.00 0.00 0.00 0.00 0.00 0.00 0.00 0.00 0.00 0.00 0.00 0.00 0.00 0.00 0.00 0.00 0.00 0.00 0.00 0.00 0.00 0.00 0.00 0.00 0.00 0.00 0.00 0.00 0.00 0.00 0.00 0.00 0.00
0.00 0.00 0.00 0.00 0.00 0.00 0.00 0.00 0.00 0.00 0.00 0.00 0.00 0.00 0.00 0.00 0.00 0.00 0.00 0.00 0.00 0.00 0.00 0.00 0.00 0.00 0.00 0.00 0.00 0.00 0.00 0.00 0.00 0.00 0.00 0.00 0.00 0.00 0.00 0.00 0.00 0.00 0.00 0.00
0.00 0.00 0.00 0.00 0.00 0.00 0.00 0.00 0.00 0.00 0.00 0.00 0.00 0.00 0.00 0.00 0.00 0.00 0.00 0.00 0.00 0.00 0.00 0.00 0.00 0.00 0.00 0.00 0.00 0.00 0.00 0.00 0.00 0.00 0.00 0.00 0.00 0.00 0.00 0.00 0.00 0.00 0.00 0.00
0.00 0.00 0.00 0.00 0.00 0.00 0.00 0.00 0.00 0.00 0.00 0.00 0.00 0.00 0.00 0.00 0.00 0.00 0.00 0.00 0.00 0.00 0.00 0.00 0.00 0.00 0.00 0.00 0.00 0.00 0.00 0.00 0.00 0.00 0.00 0.00 0.00 0.00 0.00 0.00 0.00 0.00 0.00 0.00
0.00 0.00 0.00 0.00 0.00 0.00 0.00 0.00 0.00 0.00 0.00 0.00 0.00 0.00 0.00 0.00 0.00 0.00 0.00 0.00 0.00 0.00 0.00 0.00 0.00 0.00 0.00 0.00 0.00 0.00 0.00 0.00 0.00 0.00 0.00 0.00 0.00 0.00 0.00 0.00 0.00 0.00 0.00 0.00
0.00 0.00 0.00 0.00 0.00 0.00 0.00 0.00 0.00 0.00 0.00 0.00 0.00 0.00 0.00 0.00 0.00 0.00 0.00 0.00 0.00 0.00 0.00 0.00 0.00 0.00 0.00 0.00 0.00 0.00 0.00 0.00 0.00 0.00 0.00 0.00 0.00 0.00 0.00 0.00 0.00 0.00 0.00 0.00
0.00 0.00 0.00 0.00 0.00 0.00 0.00 0.00 0.00 0.00 0.00 0.00 0.00 0.00 0.00 0.00 0.00 0.00 0.00 0.00 0.00 0.00 0.00 0.00 0.00 0.00 0.00 0.00 0.00 0.00 0.00 0.00 0.00 0.00 0.00 0.00 0.00 0.00 0.00 0.00 0.00 0.00 0.00 0.00
0.00 0.00 0.00 0.00 0.00 0.00 0.00 0.00 0.00 0.00 0.00 0.00 0.00 0.00 0.00 0.00 0.00 0.00 0.00 0.00 0.00 0.00 0.00 0.00 0.00 0.00 0.00 0.00 0.00 0.00 0.00 0.00 0.00 0.00 0.00 0.00 0.00 0.00 0.00 0.01 0.01 0.02 0.03 0.01
0.00 0.00 0.00 0.00 0.00 0.00 0.00 0.00 0.00 0.00 0.00 0.00 0.00 0.00 0.00 0.00 0.00 0.00 0.00 0.00 0.00 0.00 0.00 0.00 0.00 0.00 0.00 0.00 0.00 0.00 0.00 0.00 0.00 0.00 0.00 0.00 0.00 0.00 0.01 0.02 0.05 0.09 0.05 0.01
0.00 0.00 0.00 0.00 0.00 0.00 0.00 0.00 0.00 0.00 0.00 0.00 0.00 0.00 0.00 0.00 0.00 0.00 0.00 0.00 0.00 0.00 0.00 0.00 0.00 0.00 0.00 0.00 0.00 0.00 0.00 0.00 0.00 0.00 0.00 0.00 0.00 0.00 0.01 0.02 0.04 0.04 0.03 0.02
0.00 0.00 0.00 0.00 0.00 0.00 0.00 0.00 0.00 0.00 0.00 0.00 0.00 0.00 0.00 0.00 0.00 0.00 0.00 0.00 0.00 0.00 0.00 0.00 0.00 0.00 0.00 0.00 0.00 0.00 0.00 0.01 0.01 0.01 0.01 0.01 0.01 0.01 0.01 0.01 0.01 0.01 0.01 0.01
0.00 0.00 0.00 0.00 0.00 0.00 0.00 0.00 0.00 0.00 0.00 0.00 0.00 0.00 0.00 0.00 0.00 0.00 0.00 0.00 0.00 0.00 0.00 0.00 0.00 0.00 0.00 0.00 0.00 0.00 0.00 0.01 0.01 0.01 0.02 0.02 0.01 0.02 0.02 0.01 0.01 0.00 0.00 0.00
0.00 0.00 0.00 0.00 0.00 0.00 0.00 0.00 0.00 0.00 0.00 0.00 0.00 0.00 0.00 0.00 0.00 0.00 0.00 0.00 0.00 0.00 0.00 0.00 0.00 0.00 0.00 0.00 0.00 0.00 0.00 0.01 0.02 0.01 0.01 0.01 0.01 0.01 0.01 0.01 0.01 0.01 0.00 0.00
0.00 0.00 0.00 0.00 0.00 0.00 0.00 0.00 0.00 0.00 0.00 0.00 0.00 0.00 0.00 0.00 0.00 0.00 0.00 0.00 0.00 0.00 0.00 0.00 0.00 0.00 0.00 0.00 0.00 0.00 0.00 0.01 0.01 0.00 0.00 0.01 0.01 0.01 0.01 0.01 0.01 0.01 0.00 0.00
0.00 0.00 0.00 0.00 0.00 0.00 0.00 0.00 0.00 0.00 0.00 0.00 0.00 0.00 0.00 0.00 0.00 0.00 0.00 0.00 0.00 0.00 0.00 0.00 0.00 0.00 0.00 0.00 0.01 0.01 0.00 0.00 0.00 0.00 0.00 0.01 0.01 0.01 0.01 0.01 0.01 0.01 0.00 0.01
0.00 0.00 0.00 0.00 0.00 0.00 0.00 0.00 0.00 0.00 0.00 0.00 0.00 0.00 0.00 0.00 0.00 0.00 0.00 0.00 0.00 0.00 0.00 0.00 0.00 0.00 0.00 0.00 0.01 0.00 0.00 0.00 0.00 0.00 0.00 0.01 0.01 0.01 0.01 0.01 0.01 0.01 0.00 0.00
0.00 0.00 0.00 0.00 0.00 0.00 0.00 0.00 0.00 0.00 0.00 0.00 0.00 0.00 0.00 0.00 0.00 0.00 0.00 0.00 0.00 0.00 0.00 0.00 0.00 0.00 0.00 0.01 0.01 0.00 0.00 0.00 0.00 0.00 0.00 0.00 0.00 0.00 0.00 0.00 0.01 0.00 0.00 0.00
0.00 0.00 0.00 0.00 0.00 0.00 0.00 0.00 0.00 0.00 0.00 0.00 0.00 0.00 0.00 0.00 0.00 0.00 0.00 0.00 0.00 0.00 0.00 0.00 0.00 0.00 0.01 0.01 0.00 0.00 0.00 0.00 0.00 0.00 0.00 0.00 0.00 0.00 0.00 0.00 0.00 0.00 0.00 0.00
0.00 0.00 0.00 0.00 0.00 0.00 0.00 0.00 0.00 0.00 0.00 0.00 0.00 0.00 0.00 0.00 0.00 0.00 0.00 0.00 0.00 0.00 0.00 0.00 0.00 0.01 0.02 0.01 0.00 0.00 0.00 0.00 0.00 0.01 0.01 0.00 0.00 0.00 0.00 0.00 0.00 0.00 0.00 0.00
0.00 0.00 0.00 0.00 0.00 0.00 0.00 0.00 0.00 0.00 0.00 0.00 0.00 0.00 0.00 0.00 0.00 0.00 0.00 0.00 0.00 0.00 0.00 0.00 0.00 0.02 0.01 0.00 0.00 0.00 0.00 0.00 0.00 0.01 0.01 0.01 0.01 0.00 0.00 0.00 0.00 0.00 0.00 0.00
0.00 0.00 0.00 0.00 0.00 0.00 0.00 0.00 0.00 0.00 0.00 0.00 0.00 0.00 0.00 0.00 0.00 0.00 0.00 0.00 0.00 0.00 0.00 0.00 0.00 0.01 0.00 0.00 0.00 0.00 0.00 0.00 0.01 0.01 0.01 0.01 0.01 0.01 0.01 0.01 0.01 0.01 0.01 0.00
0.00 0.00 0.00 0.00 0.00 0.00 0.00 0.00 0.00 0.00 0.00 0.00 0.00 0.00 0.00 0.00 0.00 0.00 0.00 0.00 0.00 0.00 0.00 0.00 0.00 0.00 0.00 0.00 0.00 0.00 0.00 0.00 0.01 0.01 0.01 0.01 0.01 0.01 0.02 0.02 0.02 0.02 0.02 0.02
0.00 0.00 0.00 0.00 0.00 0.00 0.00 0.00 0.00 0.00 0.00 0.00 0.00 0.00 0.00 0.00 0.00 0.00 0.00 0.00 0.00 0.00 0.00 0.00 0.00 0.00 0.00 0.00 0.00 0.00 0.00 0.00 0.01 0.01 0.01 0.01 0.02 0.02 0.02 0.03 0.03 0.03 0.03 0.04
0.00 0.00 0.00 0.00 0.00 0.00 0.00 0.00 0.00 0.00 0.00 0.00 0.00 0.00 0.00 0.00 0.00 0.00 0.00 0.00 0.00 0.00 0.00 0.00 0.00 0.00 0.00 0.00 0.00 0.00 0.00 0.00 0.01 0.01 0.01 0.01 0.02 0.03 0.03 0.04 0.04 0.04 0.04 0.05
0.00 0.00 0.00 0.00 0.00 0.00 0.00 0.00 0.00 0.00 0.00 0.00 0.00 0.00 0.00 0.00 0.00 0.00 0.00 0.00 0.00 0.00 0.00 0.00 0.00 0.00 0.00 0.00 0.00 0.00 0.00 0.00 0.00 0.01 0.01 0.01 0.02 0.03 0.04 0.05 0.05 0.05 0.06 0.06
MSLP
1030.02 1029.87 1029.74 1029.63 1029.56 1029.55 1029.59 1029.70 1029.91 1030.22 1030.63 1031.16 1031.79 1032.51 1033.28 1034.06 1034.82 1035.50 1036.09 1036.54 1036.84 1037.00 1037.01 1036.90 1036.69 1036.39 1036.02 1035.59 1035.10 1034.56 1033.95 1033.28 1032.54 1031.74 1030.89 1029.99 1029.06 1028.11 1027.14 1026.15 1025.14 1024.11 1023.06 1021.97
1030.21 1030.02 1029.84 1029.70 1029.62 1029.60 1029.65 1029.79 1030.02 1030.37 1030.82 1031.39 1032.06 1032.82 1033.63 1034.46 1035.26 1035.98 1036.59 1037.06 1037.37 1037.50 1037.48 1037.32 1037.03 1036.65 1036.19 1035.68 1035.12 1034.52 1033.88 1033.19 1032.46 1031.69 1030.87 1030.01 1029.12 1028.20 1027.26 1026.28 1025.28 1024.25 1023.19 1022.09
1030.30 1030.06 1029.84 1029.67 1029.57 1029.55 1029.62 1029.79 1030.08 1030.48 1031.00 1031.63 1032.37 1033.19 1034.06 1034.93 1035.77 1036.52 1037.14 1037.61 1037.89 1037.99 1037.91 1037.67 1037.30 1036.82 1036.28 1035.67 1035.04 1034.38 1033.71 1033.02 1032.30 1031.56 1030.79 1029.98 1029.14 1028.26 1027.35 1026.39 1025.40 1024.36 1023.28 1022.17
1030.24 1029.96 1029.71 1029.53 1029.43 1029.43 1029.55 1029.78 1030.14 1030.63 1031.24 1031.96 1032.78 1033.66 1034.58 1035.48 1036.33 1037.08 1037.69 1038.12 1038.35 1038.38 1038.23 1037.91 1037.44 1036.88 1036.24 1035.55 1034.85 1034.15 1033.45 1032.75 1032.06 1031.35 1030.63 1029.88 1029.09 1028.26 1027.38 1026.45 1025.46 1024.42 1023.33 1022.21
1029.98 1029.70 1029.47 1029.31 1029.25 1029.31 1029.51 1029.84 1030.30 1030.90 1031.61 1032.42 1033.31 1034.25 1035.19 1036.10 1036.92 1037.63 1038.18 1038.54 1038.69 1038.64 1038.40 1037.99 1037.44 1036.79 1036.08 1035.33 1034.58 1033.84 1033.12 1032.42 1031.74 1031.07 1030.39 1029.69 1028.95 1028.17 1027.33 1026.43 1025.46 1024.43 1023.34 1022.22
1029.54 1029.31 1029.13 1029.04 1029.08 1029.25 1029.56 1030.02 1030.62 1031.33 1032.16 1033.05 1034.00 1034.96 1035.89 1036.76 1037.52 1038.14 1038.59 1038.84 1038.89 1038.75 1038.42 1037.93 1037.31 1036.60 1035.83 1035.04 1034.25 1033.49 1032.75 1032.05 1031.38 1030.73 1030.08 1029.41 1028.72 1027.98 1027.19 1026.33 1025.40 1024.40 1023.35 1022.26
1029.01 1028.85 1028.77 1028.80 1028.97 1029.28 1029.75 1030.37 1031.11 1031.95 1032.88 1033.85 1034.82 1035.77 1036.65 1037.43 1038.08 1038.58 1038.89 1039.02 1038.96 1038.71 1038.30 1037.75 1037.08 1036.34 1035.55 1034.74 1033.94 1033.16 1032.41 1031.70 1031.02 1030.36 1029.72 1029.07 1028.40 1027.70 1026.95 1026.15 1025.28 1024.35 1023.37 1022.35
1028.45 1028.40 1028.45 1028.63 1028.97 1029.46 1030.10 1030.88 1031.78 1032.74 1033.75 1034.76 1035.73 1036.63 1037.42 1038.09 1038.59 1038.94 1039.10 1039.09 1038.91 1038.57 1038.10 1037.51 1036.82 1036.08 1035.29 1034.48 1033.68 1032.89 1032.13 1031.40 1030.69 1030.02 1029.35 1028.70 1028.05 1027.37 1026.67 1025.93 1025.14 1024.31 1023.43 1022.53
1027.96 1028.04 1028.25 1028.60 1029.12 1029.80 1030.62 1031.56 1032.58 1033.65 1034.72 1035.74 1036.68 1037.50 1038.17 1038.69 1039.04 1039.22 1039.24 1039.10 1038.81 1038.39 1037.87 1037.27 1036.59 1035.86 1035.10 1034.31 1033.51 1032.72 1031.94 1031.18 1030.44 1029.72 1029.02 1028.35 1027.69 1027.03 1026.37 1025.70 1025.01 1024.30 1023.56 1022.79
1027.61 1027.83 1028.20 1028.73 1029.42 1030.28 1031.26 1032.34 1033.47 1034.61 1035.70 1036.71 1037.58 1038.31 1038.86 1039.23 1039.42 1039.45 1039.33 1039.07 1038.69 1038.23 1037.68 1037.08 1036.42 1035.73 1035.00 1034.24 1033.46 1032.66 1031.86 1031.06 1030.27 1029.50 1028.76 1028.05 1027.38 1026.74 1026.12 1025.52 1024.93 1024.34 1023.75 1023.14
1027.43 1027.79 1028.31 1029.00 1029.86 1030.87 1031.99 1033.17 1034.38 1035.55 1036.64 1037.60 1038.40 1039.02 1039.45 1039.68 1039.74 1039.63 1039.40 1039.05 1038.61 1038.11 1037.56 1036.97 1036.35 1035.69 1034.99 1034.26 1033.50 1032.70 1031.87 1031.04 1030.21 1029.39 1028.60 1027.86 1027.17 1026.53 1025.95 1025.42 1024.93 1024.45 1023.99 1023.53
1027.41 1027.89 1028.55 1029.39 1030.39 1031.52 1032.73 1033.98 1035.22 1036.39 1037.45 1038.36 1039.07 1039.59 1039.91 1040.04 1039.99 1039.79 1039.47 1039.06 1038.59 1038.07 1037.53 1036.95 1036.35 1035.72 1035.05 1034.34 1033.59 1032.79 1031.95 1031.09 1030.22 1029.37 1028.55 1027.78 1027.08 1026.46 1025.91 1025.43 1025.01 1024.63 1024.28 1023.94
1027.47 1028.07 1028.87 1029.83 1030.94 1032.15 1033.43 1034.71 1035.94 1037.09 1038.10 1038.94 1039.58 1040.02 1040.25 1040.30 1040.18 1039.93 1039.56 1039.12 1038.63 1038.10 1037.56 1036.99 1036.41 1035.79 1035.14 1034.44 1033.69 1032.88 1032.04 1031.17 1030.29 1029.43 1028.60 1027.83 1027.13 1026.53 1026.00 1025.56 1025.19 1024.87 1024.59 1024.32
1027.54 1028.27 1029.19 1030.26 1031.46 1032.73 1034.03 1035.31 1036.52 1037.61 1038.56 1039.34 1039.91 1040.29 1040.47 1040.47 1040.32 1040.04 1039.66 1039.21 1038.71 1038.18 1037.63 1037.06 1036.47 1035.85 1035.20 1034.50 1033.75 1032.95 1032.12 1031.26 1030.40 1029.55 1028.74 1027.99 1027.32 1026.73 1026.23 1025.81 1025.46 1025.17 1024.92 1024.68
1027.58 1028.44 1029.47 1030.64 1031.90 1033.20 1034.50 1035.76 1036.92 1037.96 1038.84 1039.55 1040.07 1040.41 1040.56 1040.55 1040.39 1040.12 1039.74 1039.30 1038.80 1038.26 1037.70 1037.11 1036.50 1035.87 1035.20 1034.50 1033.75 1032.97 1032.16 1031.34 1030.52 1029.71 1028.95 1028.24 1027.61 1027.05 1026.57 1026.16 1025.81 1025.51 1025.25 1025.01
1027.57 1028.56 1029.70 1030.95 1032.26 1033.58 1034.86 1036.07 1037.17 1038.14 1038.96 1039.61 1040.09 1040.40 1040.54 1040.54 1040.40 1040.14 1039.79 1039.36 1038.86 1038.32 1037.74 1037.13 1036.49 1035.83 1035.14 1034.43 1033.69 1032.94 1032.17 1031.40 1030.64 1029.90 1029.21 1028.56 1027.97 1027.44 1026.98 1026.57 1026.21 1025.89 1025.59 1025.31
1027.53 1028.65 1029.89 1031.21 1032.55 1033.86 1035.11 1036.26 1037.29 1038.19 1038.94 1039.54 1039.98 1040.28 1040.43 1040.44 1040.33 1040.10 1039.78 1039.36 1038.87 1038.32 1037.72 1037.08 1036.42 1035.73 1035.02 1034.31 1033.59 1032.87 1032.15 1031.45 1030.76 1030.11 1029.48 1028.90 1028.36 1027.86 1027.41 1026.99 1026.61 1026.25 1025.90 1025.57
1027.52 1028.76 1030.09 1031.46 1032.81 1034.10 1035.30 1036.38 1037.33 1038.15 1038.83 1039.38 1039.79 1040.07 1040.23 1040.26 1040.18 1039.99 1039.69 1039.30 1038.81 1038.26 1037.65 1036.99 1036.30 1035.59 1034.88 1034.17 1033.47 1032.79 1032.14 1031.50 1030.89 1030.31 1029.76 1029.23 1028.73 1028.26 1027.80 1027.37 1026.95 1026.55 1026.15 1025.77
1027.62 1028.95 1030.35 1031.74 1033.07 1034.32 1035.45 1036.45 1037.32 1038.06 1038.67 1039.16 1039.54 1039.81 1039.97 1040.02 1039.97 1039.80 1039.53 1039.15 1038.68 1038.13 1037.51 1036.85 1036.16 1035.45 1034.75 1034.06 1033.39 1032.75 1032.15 1031.58 1031.03 1030.50 1030.00 1029.51 1029.03 1028.56 1028.09 1027.63 1027.18 1026.73 1026.30 1025.87
1027.86 1029.26 1030.68 1032.06 1033.36 1034.54 1035.59 1036.50 1037.28 1037.93 1038.48 1038.92 1039.26 1039.51 1039.67 1039.73 1039.69 1039.55 1039.30 1038.94 1038.49 1037.95 1037.35 1036.70 1036.02 1035.33 1034.65 1034.00 1033.37 1032.78 1032.22 1031.69 1031.18 1030.68 1030.20 1029.71 1029.23 1028.73 1028.24 1027.74 1027.24 1026.75 1026.28 1025.83
1028.24 1029.67 1031.08 1032.42 1033.65 1034.75 1035.70 1036.52 1037.21 1037.79 1038.27 1038.66 1038.96 1039.19 1039.34 1039.41 1039.38 1039.25 1039.01 1038.68 1038.25 1037.74 1037.17 1036.55 1035.91 1035.27 1034.63 1034.02 1033.43 1032.88 1032.35 1031.85 1031.35 1030.85 1030.35 1029.84 1029.31 1028.77 1028.22 1027.67 1027.12 1026.58 1026.08 1025.60
1028.71 1030.13 1031.49 1032.76 1033.90 1034.90 1035.77 1036.50 1037.11 1037.62 1038.04 1038.38 1038.66 1038.87 1039.01 1039.07 1039.04 1038.92 1038.71 1038.40 1038.00 1037.53 1037.00 1036.43 1035.85 1035.26 1034.68 1034.12 1033.58 1033.06 1032.56 1032.06 1031.54 1031.02 1030.47 1029.90 1029.30 1028.69 1028.06 1027.44 1026.83 1026.25 1025.70 1025.20
1029.18 1030.54 1031.83 1033.00 1034.04 1034.95 1035.72 1036.38 1036.93 1037.38 1037.77 1038.09 1038.35 1038.55 1038.68 1038.73 1038.70 1038.59 1038.39 1038.11 1037.75 1037.32 1036.85 1036.35 1035.83 1035.31 1034.80 1034.30 1033.81 1033.33 1032.83 1032.32 1031.78 1031.20 1030.59 1029.93 1029.25 1028.54 1027.83 1027.13 1026.44 1025.80 1025.20 1024.66
1029.52 1030.80 1031.98 1033.05 1034.00 1034.82 1035.52 1036.12 1036.63 1037.07 1037.44 1037.76 1038.02 1038.21 1038.34 1038.40 1038.37 1038.27 1038.09 1037.83 1037.50 1037.13 1036.72 1036.29 1035.86 1035.42 1034.98 1034.55 1034.11 1033.65 1033.16 1032.63 1032.06 1031.42 1030.73 1029.99 1029.21 1028.41 1027.60 1026.81 1026.04 1025.33 1024.67 1024.08
1029.63 1030.81 1031.88 1032.85 1033.70 1034.45 1035.11 1035.69 1036.19 1036.64 1037.03 1037.36 1037.64 1037.85 1037.99 1038.06 1038.05 1037.95 1037.79 1037.56 1037.28 1036.96 1036.61 1036.26 1035.90 1035.55 1035.19 1034.82 1034.43 1034.01 1033.53 1032.99 1032.38 1031.70 1030.94 1030.12 1029.26 1028.36 1027.47 1026.59 1025.74 1024.95 1024.23 1023.56
1029.44 1030.50 1031.47 1032.35 1033.14 1033.84 1034.48 1035.07 1035.60 1036.08 1036.51 1036.89 1037.21 1037.45 1037.62 1037.70 1037.71 1037.63 1037.49 1037.29 1037.05 1036.78 1036.51 1036.23 1035.95 1035.68 1035.40 1035.10 1034.76 1034.38 1033.92 1033.38 1032.75 1032.03 1031.23 1030.35 1029.42 1028.46 1027.50 1026.55 1025.63 1024.77 1023.97 1023.23
1028.93 1029.88 1030.76 1031.56 1032.30 1033.00 1033.65 1034.27 1034.85 1035.40 1035.89 1036.33 1036.70 1036.99 1037.19 1037.31 1037.33 1037.28 1037.17 1037.00 1036.81 1036.59 1036.38 1036.17 1035.97 1035.78 1035.57 1035.34 1035.06 1034.72 1034.30 1033.77 1033.15 1032.42 1031.59 1030.69 1029.73 1028.73 1027.72 1026.73 1025.76 1024.84 1023.97 1023.15
Thickness
5590 5575 5569 5568 5564 5552 5543 5541 5532 5528 5500 5482 5452 5432 5415 5395 5371 5352 5336 5320 5303 5288 5277 5265 5255 5246 5238 5229 5221 5212 5204 5196 5188 5181 5175 5171 5167 5165 5163 5163 5164 5167 5173 5181
5589 5569 5562 5560 5559 5548 5538 5528 5517 5504 5490 5465 5443 5427 5410 5386 5360 5342 5327 5311 5294 5281 5270 5259 5250 5241 5232 5224 5215 5206 5197 5189 5181 5175 5170 5165 5162 5158 5155 5153 5153 5155 5159 5167
5593 5574 5570 5579 5566 5548 5537 5523 5511 5498 5483 5453 5437 5420 5398 5372 5349 5332 5316 5300 5286 5273 5263 5253 5244 5235 5227 5219 5210 5201 5192 5184 5177 5171 5165 5160 5156 5151 5146 5144 5143 5144 5148 5154
5578 5578 5574 5582 5542 5538 5529 5516 5498 5482 5464 5445 5426 5406 5379 5354 5338 5322 5305 5290 5278 5267 5257 5248 5239 5231 5223 5214 5206 5197 5188 5181 5174 5168 5161 5155 5150 5144 5139 5134 5132 5133 5137 5142
5564 5569 5582 5562 5537 5524 5517 5514 5490 5473 5456 5438 5418 5402 5379 5347 5326 5312 5297 5283 5272 5262 5253 5245 5236 5228 5220 5212 5204 5194 5186 5179 5172 5165 5159 5152 5144 5138 5131 5125 5122 5122 5126 5131
5549 5560 5576 5574 5534 5517 5508 5505 5483 5466 5449 5430 5409 5403 5380 5337 5320 5304 5289 5278 5267 5259 5251 5243 5234 5225 5218 5211 5202 5193 5184 5176 5169 5163 5155 5146 5138 5129 5120 5112 5109 5110 5114 5119
5552 5554 5579 5550 5521 5507 5511 5513 5476 5458 5440 5419 5401 5382 5353 5331 5314 5299 5285 5274 5265 5257 5249 5241 5232 5224 5216 5208 5200 5190 5182 5174 5167 5159 5150 5140 5130 5118 5106 5098 5094 5095 5101 5108
5555 5552 5564 5533 5515 5515 5515 5487 5470 5450 5429 5408 5389 5365 5344 5326 5309 5294 5282 5272 5263 5255 5248 5240 5232 5223 5215 5208 5198 5189 5181 5174 5166 5156 5147 5137 5125 5110 5096 5085 5082 5084 5090 5098
5572 5577 5552 5535 5527 5511 5497 5481 5461 5439 5415 5395 5375 5357 5337 5320 5305 5291 5280 5271 5262 5253 5247 5241 5232 5223 5215 5207 5198 5190 5182 5174 5165 5155 5145 5134 5122 5107 5091 5079 5075 5076 5080 5087
5563 5565 5544 5528 5513 5499 5487 5470 5447 5425 5403 5384 5365 5346 5328 5314 5302 5288 5278 5270 5261 5254 5248 5240 5232 5224 5215 5207 5198 5190 5183 5175 5166 5157 5147 5136 5123 5106 5090 5078 5073 5073 5075 5079
5562 5553 5533 5521 5509 5492 5471 5452 5432 5411 5392 5375 5357 5339 5321 5307 5296 5285 5276 5269 5261 5254 5246 5239 5232 5225 5217 5208 5200 5193 5186 5179 5170 5161 5151 5139 5124 5109 5093 5080 5072 5070 5070 5073
5577 5562 5543 5527 5506 5484 5463 5445 5423 5403 5384 5367 5350 5332 5317 5305 5293 5283 5275 5267 5260 5253 5246 5239 5232 5225 5218 5209 5201 5195 5190 5183 5175 5166 5155 5143 5130 5116 5100 5086 5076 5069 5067 5069
5558 5540 5529 5511 5493 5476 5458 5436 5415 5398 5380 5361 5342 5327 5313 5302 5292 5281 5273 5266 5259 5252 5245 5239 5233 5226 5219 5211 5204 5198 5191 5184 5177 5168 5158 5147 5136 5124 5111 5098 5084 5074 5068 5067
5537 5526 5509 5498 5483 5465 5447 5426 5406 5388 5371 5356 5341 5324 5309 5299 5288 5279 5271 5263 5257 5252 5246 5240 5233 5228 5221 5213 5207 5201 5194 5186 5178 5169 5159 5149 5140 5130 5120 5108 5096 5085 5075 5069
5531 5526 5511 5492 5470 5451 5433 5415 5397 5380 5365 5351 5335 5319 5306 5296 5286 5277 5270 5264 5258 5253 5247 5240 5235 5230 5223 5216 5210 5205 5198 5188 5180 5172 5163 5154 5145 5136 5127 5117 5107 5096 5085 5077
5520 5506 5494 5478 5462 5443 5427 5411 5396 5378 5362 5347 5331 5317 5304 5292 5284 5277 5271 5265 5259 5253 5247 5241 5236 5231 5226 5220 5213 5208 5200 5191 5184 5177 5169 5161 5151 5142 5133 5125 5116 5107 5097 5088
5512 5499 5487 5473 5456 5440 5425 5410 5395 5377 5359 5344 5329 5314 5302 5294 5287 5281 5273 5266 5259 5254 5249 5244 5238 5234 5230 5223 5217 5211 5203 5196 5189 5183 5175 5167 5158 5148 5139 5131 5123 5115 5107 5099
5528 5513 5497 5481 5461 5441 5422 5405 5389 5371 5356 5342 5327 5314 5305 5296 5286 5276 5269 5264 5261 5258 5252 5245 5240 5238 5232 5226 5221 5214 5206 5200 5194 5188 5181 5174 5164 5155 5147 5139 5132 5124 5117 5110
5516 5502 5488 5473 5457 5439 5420 5401 5383 5366 5351 5338 5327 5317 5304 5293 5283 5275 5269 5265 5263 5260 5253 5246 5244 5240 5235 5230 5224 5217 5210 5205 5199 5194 5188 5181 5173 5165 5157 5149 5142 5135 5128 5121
5504 5492 5477 5461 5446 5429 5412 5394 5376 5361 5347 5335 5325 5314 5305 5294 5284 5276 5270 5268 5265 5258 5253 5250 5247 5243 5239 5234 5227 5220 5214 5210 5205 5201 5196 5189 5183 5175 5167 5159 5152 5146 5139 5132
5493 5478 5464 5449 5434 5421 5406 5388 5373 5358 5344 5333 5324 5314 5303 5293 5284 5277 5272 5274 5267 5260 5258 5253 5249 5246 5242 5236 5230 5223 5218 5214 5210 5207 5203 5197 5192 5185 5178 5171 5164 5158 5152 5145
5482 5469 5456 5443 5428 5413 5397 5383 5369 5355 5341 5331 5321 5310 5301 5294 5287 5279 5273 5268 5265 5262 5260 5254 5250 5248 5244 5238 5232 5226 5222 5218 5214 5212 5208 5204 5200 5196 5190 5183 5177 5171 5165 5159
5478 5464 5450 5437 5423 5407 5390 5377 5364 5352 5340 5331 5321 5312 5305 5297 5289 5282 5277 5270 5264 5263 5260 5255 5253 5250 5245 5239 5234 5229 5224 5221 5218 5216 5212 5209 5207 5204 5201 5195 5189 5184 5179 5173
5471 5457 5442 5427 5413 5398 5385 5372 5358 5347 5337 5328 5319 5310 5302 5296 5289 5281 5273 5269 5265 5263 5260 5256 5254 5251 5246 5240 5235 5230 5226 5222 5220 5218 5216 5214 5212 5211 5210 5207 5202 5198 5193 5188
5463 5447 5432 5418 5408 5399 5385 5368 5353 5341 5332 5325 5318 5309 5301 5294 5288 5281 5274 5269 5265 5262 5260 5256 5254 5250 5246 5241 5237 5232 5228 5224 5221 5219 5217 5216 5215 5215 5215 5214 5212 5210 5207 5203
5454 5442 5431 5420 5411 5398 5382 5367 5355 5344 5335 5327 5319 5311 5302 5294 5287 5281 5274 5269 5264 5261 5259 5256 5253 5250 5246 5242 5238 5234 5230 5226 5223 5220 5219 5218 5217 5217 5218 5218 5217 5216 5215 5213
5447 5436 5423 5413 5402 5391 5379 5367 5357 5346 5338 5330 5322 5312 5303 5295 5288 5281 5275 5269 5264 5261 5258 5255 5252 5250 5246 5242 5239 5235 5232 5228 5225 5222 5220 5219 5219 5218 5220 5220 5220 5219 5219 5218